Lid_Strength_Index
3 4 3 4 4 4 4 4 4 4 4 3 3 3 3 3 3 7 10 6 5 2 2 6 6 7 9 11 11 11 16 19 17 15 14 12 12 9 8 9 8 7 7 7 5
3 4 4 4 4 4 4 4 4 4 4 3 3 3 3 3 7 8 4 1 1 2 6 7 9 8 11 12 12 14 18 16 13 12 13 11 11 10 10 9 9 8 6 3 3
4 4 4 4 4 4 4 4 4 4 3 3 3 3 3 3 9 8 2 1 1 3 5 6 8 10 12 12 12 15 16 13 12 11 11 11 11 9 10 11 10 9 7 4 4
4 4 4 4 4 4 4 4 4 4 4 4 4 3 3 6 14 6 1 1 1 3 6 8 10 13 13 13 11 13 11 11 12 10 11 11 10 11 10 10 8 8 7 6 5
4 4 4 4 4 5 4 4 5 4 4 4 4 3 6 9 9 4 0 1 3 4 7 9 11 12 13 12 11 11 10 9 10 10 10 9 10 10 10 9 8 7 7 8 6
4 4 4 4 4 4 4 4 4 4 4 4 3 3 7 12 6 3 2 4 4 6 7 8 9 8 10 11 11 9 9 9 9 10 10 9 9 10 9 8 8 7 7 7 5
4 4 4 4 4 4 4 4 4 4 4 4 3 4 8 9 4 3 3 5 5 4 6 5 6 8 9 11 10 9 12 10 9 9 9 8 11 10 9 8 9 8 7 7 4
4 4 4 4 4 4 4 4 4 4 4 3 3 6 9 5 5 5 4 4 4 4 4 4 6 8 10 9 9 11 13 16 11 9 9 9 14 9 8 9 9 8 7 7 5
4 4 4 4 4 3 4 4 4 4 3 3 6 8 9 3 5 4 4 5 4 3 4 3 7 9 9 13 13 14 16 15 12 10 9 10 12 9 8 8 9 9 8 8 7
4 4 4 5 4 4 4 4 4 5 4 3 4 9 8 8 6 5 5 4 4 5 5 7 9 11 13 14 17 15 14 13 13 11 11 12 12 9 9 8 9 9 8 8 7
4 4 4 4 4 4 7 7 9 10 8 9 9 8 7 5 4 5 3 4 4 6 10 8 11 13 11 11 10 11 12 13 11 9 10 11 11 10 9 9 9 10 9 9 8
4 4 4 4 4 5 8 8 7 7 10 7 7 6 5 5 7 5 3 6 7 10 9 11 13 9 8 9 10 11 13 14 11 9 10 11 11 9 8 8 8 8 9 9 9
4 4 4 4 5 7 8 6 4 6 11 8 7 8 9 8 7 6 4 6 8 11 10 13 10 8 9 11 12 12 14 13 14 11 10 11 13 11 8 7 7 7 7 8 9
5 5 5 5 8 8 9 6 6 6 15 12 10 9 8 8 9 4 3 6 8 11 10 11 8 9 10 12 11 15 10 11 12 14 17 11 19 12 10 9 8 8 8 7 8
5 5 5 5 9 9 7 7 7 7 21 11 10 7 8 9 8 8 3 5 10 10 11 12 10 11 12 11 10 13 10 11 12 14 15 15 18 15 10 11 9 8 8 7 7
5 5 5 6 8 7 6 7 7 16 20 12 10 10 11 9 9 8 6 5 6 9 9 10 8 9 10 9 9 9 11 12 12 15 20 15 16 16 13 11 9 8 8 7 7
5 5 6 6 8 7 7 8 15 19 12 13 12 11 12 11 10 10 10 11 13 15 14 11 11 9 8 11 10 10 14 19 20 20 21 13 16 15 10 9 9 9 8 8 8
6 6 5 5 6 7 9 13 18 14 13 10 11 11 12 12 11 11 12 12 10 12 14 16 17 11 8 10 12 13 14 19 23 22 20 14 18 14 10 9 8 8 8 8 8
7 7 6 6 7 8 11 16 16 13 11 11 12 14 13 11 12 12 12 12 11 11 15 16 15 9 8 8 9 13 16 12 17 16 19 17 14 11 10 10 9 9 7 8 9
10 7 7 7 7 8 12 13 13 9 9 10 15 13 15 13 13 13 13 9 10 9 10 12 17 11 9 9 9 11 10 17 16 22 23 18 18 17 13 12 10 10 9 8 9
9 9 6 6 7 10 15 14 11 8 9 11 13 14 13 13 13 13 12 9 9 9 9 11 13 13 11 12 13 13 14 14 15 16 21 22 19 11 12 11 10 9 9 8 8
11 12 7 7 12 14 15 12 9 10 9 10 10 12 12 12 13 12 12 10 7 8 12 10 13 16 14 10 8 10 13 13 18 19 17 18 18 9 10 9 9 9 8 7 7
12 12 7 9 15 15 12 11 9 11 11 11 11 11 11 13 15 11 10 7 8 9 11 11 14 17 15 12 10 12 12 12 13 14 18 20 18 9 9 9 9 9 8 7 8
11 14 12 12 12 13 14 13 12 10 11 11 10 10 12 13 11 13 11 8 8 8 6 8 13 14 18 15 12 15 13 12 13 17 17 17 16 12 11 11 9 9 8 8 7
11 13 13 14 13 13 13 12 13 13 11 11 11 11 13 15 14 13 10 10 8 7 8 9 14 13 12 12 12 12 13 13 14 14 17 15 15 13 11 10 10 8 7 7 7
11 11 10 11 11 12 12 13 12 11 12 13 13 11 12 15 13 13 11 11 11 9 10 9 14 13 14 11 11 13 12 12 12 13 13 13 14 10 9 8 10 10 8 8 7
10 9 10 11 12 13 12 11 11 11 11 11 12 12 11 11 10 9 9 8 8 9 11 11 13 14 17 13 13 16 13 13 12 12 13 15 12 9 10 9 9 11 9 8 7